| time (UTC) | temp F | wind direction | speed MPH | gust MPH | rain 1hr in | rain 24hr in | rain mn in | humidity % | barometer mb |
| 20260507022347 | 64 | 260 | 1.0 | 4.0 | 0.00 | 0.00 | 0.00 | 86 | 1014.1 |
| 20260507021346 | 64 | 270 | 2.0 | 7.0 | 0.00 | 0.00 | 0.00 | 85 | 1014.1 |
| 20260507020346 | 64 | 306 | 1.0 | 7.0 | 0.00 | 0.00 | 0.00 | 84 | 1014.1 |
| 20260507015346 | 65 | 269 | 1.0 | 7.0 | 0.00 | 0.00 | 0.00 | 84 | 1014.1 |
| 20260507014346 | 65 | 277 | 2.0 | 8.0 | 0.00 | 0.00 | 0.00 | 83 | 1014.0 |
| 20260507013346 | 66 | 272 | 2.0 | 5.0 | 0.00 | 0.00 | 0.00 | 83 | 1014.1 |
| 20260507011346 | 66 | 309 | 3.0 | 7.0 | 0.00 | 0.00 | 0.00 | 83 | 1014.1 |
| 20260507005346 | 66 | 192 | 1.0 | 7.0 | 0.00 | 0.00 | 0.00 | 83 | 1014.0 |
| 20260507002346 | 67 | 40 | 2.0 | 10.0 | 0.00 | 0.00 | 0.00 | 81 | 1014.1 |
| 20260507000346 | 67 | 278 | 3.0 | 8.0 | 0.00 | 0.00 | 0.00 | 82 | 1014.0 |
| 20260506235346 | 67 | 120 | 2.0 | 8.0 | 0.00 | 0.00 | 0.00 | 82 | 1014.1 |
| 20260506234347 | 67 | 46 | 1.0 | 8.0 | 0.00 | 0.00 | 0.00 | 82 | 1014.0 |
| 20260506233346 | 68 | 283 | 3.0 | 8.0 | 0.00 | 0.00 | 0.00 | 80 | 1014.1 |
| 20260506232346 | 67 | 208 | 5.0 | 8.0 | 0.00 | 0.00 | 0.00 | 80 | 1014.1 |
| 20260506230346 | 67 | 217 | 2.0 | 10.0 | 0.00 | 0.00 | 0.00 | 80 | 1014.3 |
| 20260506224346 | 67 | 236 | 4.0 | 10.0 | 0.00 | 0.00 | 0.00 | 80 | 1014.4 |
| 20260506223346 | 67 | 229 | 5.0 | 10.0 | 0.00 | 0.00 | 0.00 | 80 | 1014.6 |
| 20260506222346 | 67 | 241 | 4.0 | 9.0 | 0.00 | 0.00 | 0.00 | 81 | 1014.7 |
| 20260506221346 | 66 | 278 | 3.0 | 9.0 | 0.00 | 0.00 | 0.00 | 81 | 1014.8 |
| 20260506220346 | 67 | 273 | 7.0 | 11.0 | 0.00 | 0.00 | 0.00 | 80 | 1014.9 |
| 20260506215346 | 66 | 257 | 2.0 | 9.0 | 0.00 | 0.00 | 0.00 | 81 | 1015.0 |
| 20260506214346 | 67 | 221 | 4.0 | 8.0 | 0.00 | 0.00 | 0.00 | 80 | 1015.1 |
| 20260506213346 | 67 | 317 | 1.0 | 9.0 | 0.00 | 0.00 | 0.00 | 80 | 1015.2 |
| 20260506211346 | 66 | 240 | 9.0 | 10.0 | 0.00 | 0.00 | 0.00 | 80 | 1015.2 |
| 20260506210346 | 66 | 220 | 7.0 | 9.0 | 0.00 | 0.00 | 0.00 | 80 | 1015.4 |
| 20260506205346 | 67 | 212 | 3.0 | 8.0 | 0.00 | 0.00 | 0.00 | 80 | 1015.3 |
| 20260506204346 | 66 | 271 | 7.0 | 8.0 | 0.00 | 0.00 | 0.00 | 82 | 1015.5 |
| 20260506203346 | 66 | 237 | 6.0 | 9.0 | 0.00 | 0.00 | 0.00 | 82 | 1015.7 |
| 20260506202346 | 65 | 220 | 2.0 | 8.0 | 0.00 | 0.00 | 0.00 | 82 | 1015.7 |
| 20260506200346 | 65 | 189 | 1.0 | 7.0 | 0.00 | 0.00 | 0.00 | 84 | 1015.8 |
| 20260506195346 | 65 | 238 | 6.0 | 9.0 | 0.00 | 0.00 | 0.00 | 83 | 1015.9 |
| 20260506194347 | 65 | 247 | 1.0 | 8.0 | 0.00 | 0.00 | 0.00 | 83 | 1015.9 |
| 20260506192345 | 65 | 258 | 4.0 | 9.0 | 0.00 | 0.00 | 0.00 | 82 | 1016.2 |
| 20260506191347 | 65 | 225 | 4.0 | 8.0 | 0.00 | 0.00 | 0.00 | 83 | 1016.3 |
| 20260506190346 | 65 | 209 | 5.0 | 8.0 | 0.00 | 0.00 | 0.00 | 82 | 1016.4 |
| 20260506185346 | 65 | 211 | 3.0 | 7.0 | 0.00 | 0.00 | 0.00 | 83 | 1016.4 |
| 20260506183346 | 65 | 234 | 6.0 | 9.0 | 0.00 | 0.00 | 0.00 | 82 | 1016.5 |
| 20260506180345 | 65 | 200 | 6.0 | 7.0 | 0.00 | 0.00 | 0.00 | 82 | 1016.5 |
| 20260506175345 | 64 | 269 | 3.0 | 7.0 | 0.00 | 0.00 | 0.00 | 82 | 1016.6 |
| 20260506174345 | 64 | 342 | 4.0 | 6.0 | 0.00 | 0.00 | 0.00 | 82 | 1016.5 |
| 20260506173345 | 64 | 262 | 2.0 | 8.0 | 0.00 | 0.00 | 0.00 | 81 | 1016.5 |
| 20260506172346 | 64 | 281 | 3.0 | 6.0 | 0.00 | 0.00 | 0.00 | 81 | 1016.5 |
| 20260506171346 | 64 | 338 | 2.0 | 6.0 | 0.00 | 0.00 | 0.00 | 81 | 1016.5 |
| 20260506170346 | 64 | 219 | 5.0 | 6.0 | 0.00 | 0.00 | 0.00 | 80 | 1016.4 |
| 20260506165345 | 64 | 234 | 2.0 | 5.0 | 0.00 | 0.00 | 0.00 | 80 | 1016.2 |
| 20260506164346 | 64 | 349 | 2.0 | 6.0 | 0.00 | 0.00 | 0.00 | 81 | 1016.3 |
| 20260506163346 | 64 | 273 | 3.0 | 5.0 | 0.00 | 0.00 | 0.00 | 81 | 1016.2 |
| 20260506162346 | 64 | 314 | 3.0 | 4.0 | 0.00 | 0.00 | 0.00 | 82 | 1016.2 |
| 20260506161347 | 64 | 340 | 1.0 | 4.0 | 0.00 | 0.00 | 0.00 | 82 | 1016.3 |
| 20260506160346 | 64 | 284 | 0.0 | 3.0 | 0.00 | 0.00 | 0.00 | 82 | 1016.1 |
| 20260506155345 | 63 | 105 | 1.0 | 3.0 | 0.00 | 0.00 | 0.00 | 84 | 1016.2 |
| 20260506154346 | 62 | 114 | 0.0 | 4.0 | 0.00 | 0.00 | 0.00 | 85 | 1016.1 |
| 20260506152345 | 61 | 114 | 1.0 | 3.0 | 0.00 | 0.00 | 0.00 | 89 | 1016.2 |
| 20260506151346 | 60 | 39 | 3.0 | 3.0 | 0.00 | 0.00 | 0.00 | 90 | 1016.3 |
| 20260506145345 | 59 | 55 | 1.0 | 2.0 | 0.00 | 0.00 | 0.00 | 91 | 1016.3 |
| 20260506144346 | 58 | 36 | 0.0 | 3.0 | 0.00 | 0.00 | 0.00 | 92 | 1016.3 |
| 20260506143346 | 58 | 47 | 0.0 | 3.0 | 0.00 | 0.00 | 0.00 | 92 | 1016.1 |
| 20260506142345 | 57 | 113 | 1.0 | 3.0 | 0.00 | 0.00 | 0.00 | 93 | 1016.2 |
| 20260506141345 | 57 | 117 | 0.0 | 3.0 | 0.00 | 0.00 | 0.00 | 93 | 1016.1 |
| 20260506140345 | 57 | 56 | 3.0 | 3.0 | 0.00 | 0.00 | 0.00 | 93 | 1016.0 |
| 20260506135345 | 56 | 76 | 0.0 | 3.0 | 0.00 | 0.00 | 0.00 | 93 | 1016.0 |
| 20260506133345 | 56 | 51 | 1.0 | 2.0 | 0.00 | 0.00 | 0.00 | 93 | 1015.9 |
| 20260506131346 | 56 | 32 | 1.0 | 3.0 | 0.00 | 0.00 | 0.00 | 93 | 1015.7 |
| 20260506130345 | 55 | 61 | 0.0 | 2.0 | 0.00 | 0.00 | 0.00 | 93 | 1015.5 |
| 20260506125345 | 55 | 94 | 1.0 | 2.0 | 0.00 | 0.00 | 0.00 | 93 | 1015.4 |
| 20260506124345 | 55 | 58 | 1.0 | 2.0 | 0.00 | 0.00 | 0.00 | 93 | 1015.3 |
| 20260506123346 | 55 | 110 | 1.0 | 2.0 | 0.00 | 0.00 | 0.00 | 93 | 1015.2 |
| 20260506122346 | 55 | 110 | 0.0 | 0.0 | 0.00 | 0.00 | 0.00 | 93 | 1015.1 |
| 20260506121345 | 55 | 110 | 0.0 | 1.0 | 0.00 | 0.00 | 0.00 | 93 | 1015.1 |
| 20260506120345 | 55 | 110 | 0.0 | 1.0 | 0.00 | 0.00 | 0.00 | 93 | 1015.1 |
| 20260506115345 | 55 | 110 | 0.0 | 0.0 | 0.00 | 0.00 | 0.00 | 92 | 1015.1 |
| 20260506114345 | 55 | 110 | 0.0 | 0.0 | 0.00 | 0.00 | 0.00 | 92 | 1015.0 |
| 20260506112345 | 56 | 110 | 0.0 | 0.0 | 0.00 | 0.00 | 0.00 | 92 | 1015.0 |
| 20260506111345 | 56 | 110 | 0.0 | 0.0 | 0.00 | 0.00 | 0.00 | 92 | 1014.9 |
| 20260506110347 | 56 | 110 | 0.0 | 0.0 | 0.00 | 0.00 | 0.00 | 92 | 1014.9 |
| 20260506105346 | 56 | 110 | 0.0 | 0.0 | 0.00 | 0.00 | 0.00 | 92 | 1014.9 |
| 20260506104345 | 56 | 110 | 0.0 | 2.0 | 0.00 | 0.00 | 0.00 | 92 | 1014.9 |
| 20260506103345 | 56 | 167 | 0.0 | 0.0 | 0.00 | 0.00 | 0.00 | 92 | 1014.9 |
| 20260506102345 | 57 | 167 | 0.0 | 1.0 | 0.00 | 0.00 | 0.00 | 91 | 1014.9 |
| 20260506101345 | 57 | 167 | 0.0 | 0.0 | 0.00 | 0.00 | 0.00 | 91 | 1014.9 |
| 20260506100345 | 57 | 167 | 0.0 | 0.0 | 0.00 | 0.00 | 0.00 | 91 | 1014.9 |
| 20260506095345 | 57 | 167 | 0.0 | 0.0 | 0.00 | 0.00 | 0.00 | 91 | 1014.9 |
| 20260506094345 | 58 | 167 | 0.0 | 0.0 | 0.00 | 0.00 | 0.00 | 90 | 1015.0 |
| 20260506091345 | 59 | 167 | 0.0 | 1.0 | 0.00 | 0.00 | 0.00 | 90 | 1015.1 |
| 20260506085345 | 59 | 167 | 0.0 | 2.0 | 0.00 | 0.00 | 0.00 | 91 | 1015.3 |
| 20260506083345 | 59 | 160 | 0.0 | 1.0 | 0.00 | 0.00 | 0.00 | 90 | 1015.4 |
| 20260506081345 | 60 | 159 | 1.0 | 3.0 | 0.00 | 0.00 | 0.00 | 90 | 1015.3 |
| 20260506080346 | 60 | 142 | 2.0 | 2.0 | 0.00 | 0.00 | 0.00 | 90 | 1015.4 |
| 20260506073346 | 60 | 182 | 0.0 | 2.0 | 0.00 | 0.00 | 0.00 | 89 | 1015.5 |
| 20260506072345 | 60 | 165 | 0.0 | 2.0 | 0.00 | 0.00 | 0.00 | 89 | 1015.4 |
| 20260506071345 | 60 | 136 | 0.0 | 3.0 | 0.00 | 0.00 | 0.00 | 89 | 1015.3 |
| 20260506070415 | 60 | 168 | 1.0 | 4.0 | 0.00 | 0.00 | 0.00 | 88 | 1015.3 |
| 20260506062345 | 60 | 171 | 0.0 | 2.0 | 0.00 | 0.00 | 0.00 | 88 | 1015.1 |
| 20260506061345 | 60 | 139 | 0.0 | 2.0 | 0.00 | 0.00 | 0.00 | 89 | 1015.0 |
| 20260506060345 | 60 | 150 | 0.0 | 4.0 | 0.00 | 0.00 | 0.00 | 88 | 1014.9 |
| 20260506051344 | 61 | 141 | 3.0 | 3.0 | 0.00 | 0.00 | 0.00 | 89 | 1014.6 |
| 20260506050345 | 61 | 249 | 3.0 | 3.0 | 0.00 | 0.00 | 0.00 | 88 | 1014.5 |
| 20260506043345 | 61 | 242 | 0.0 | 3.0 | 0.00 | 0.00 | 0.00 | 87 | 1014.1 |
| 20260506042344 | 61 | 234 | 2.0 | 3.0 | 0.00 | 0.00 | 0.00 | 86 | 1014.1 |
| 20260506033345 | 61 | 238 | 2.0 | 3.0 | 0.00 | 0.00 | 0.00 | 84 | 1013.2 |
| 20260506032344 | 61 | 268 | 1.0 | 4.0 | 0.00 | 0.00 | 0.00 | 84 | 1013.3 |
| 20260506031345 | 61 | 221 | 2.0 | 4.0 | 0.00 | 0.00 | 0.00 | 84 | 1013.3 |
| 20260506030344 | 61 | 223 | 3.0 | 3.0 | 0.00 | 0.00 | 0.00 | 83 | 1012.8 |
| 20260506025345 | 62 | 207 | 2.0 | 5.0 | 0.00 | 0.00 | 0.00 | 83 | 1012.7 |
| 20260506024344 | 62 | 223 | 5.0 | 5.0 | 0.00 | 0.00 | 0.00 | 83 | 1012.7 |
| 20260506023344 | 62 | 238 | 1.0 | 4.0 | 0.00 | 0.00 | 0.00 | 82 | 1012.6 |